| time (UTC) | temp C | wind direction | speed KPH | gust KPH | rain 1hr cm | rain 24hr cm | rain mn cm | humidity % | barometer mb |
| 20260831204259 | 29 | 350 | 0.0 | 1.6 | 0.00 | 0.00 | 0.00 | 72 | 1018.2 |
| 20260831203759 | 30 | 350 | 0.0 | 1.6 | 0.00 | 0.00 | 0.00 | 72 | 1018.3 |
| 20260831203747 | 30 | 67 | 0.0 | 1.6 | 0.00 | 0.00 | 0.00 | 73 | 1018.4 |
| 20260831203020 | 30 | 67 | 0.0 | 0.0 | 0.00 | 0.00 | 0.00 | 72 | 1018.3 |
| 20260831202252 | 30 | 344 | 0.0 | 1.6 | 0.00 | 0.00 | 0.00 | 70 | 1018.4 |
| 20260831202017 | 30 | 344 | 0.0 | 1.6 | 0.00 | 0.00 | 0.00 | 71 | 1018.4 |
| 20260831201247 | 30 | 344 | 0.0 | 1.6 | 0.00 | 0.00 | 0.00 | 71 | 1018.4 |
| 20260831200747 | 30 | 56 | 0.0 | 1.6 | 0.00 | 0.00 | 0.00 | 72 | 1018.3 |
| 20260831200731 | 30 | 56 | 0.0 | 0.0 | 0.00 | 0.00 | 0.00 | 69 | 1018.4 |
| 20260831195742 | 30 | 56 | 0.0 | 1.6 | 0.00 | 0.00 | 0.00 | 70 | 1018.4 |
| 20260831195239 | 30 | 56 | 0.0 | 3.2 | 0.00 | 0.00 | 0.00 | 72 | 1018.3 |
| 20260831194947 | 30 | 102 | 1.6 | 3.2 | 0.00 | 0.00 | 0.00 | 70 | 1018.4 |
| 20260831194829 | 30 | 56 | 1.6 | 3.2 | 0.00 | 0.00 | 0.00 | 71 | 1018.3 |
| 20260831193727 | 30 | 65 | 0.0 | 3.2 | 0.00 | 0.00 | 0.00 | 69 | 1018.5 |
| 20260831193222 | 30 | 44 | 0.0 | 1.6 | 0.00 | 0.00 | 0.00 | 70 | 1018.6 |
| 20260831192717 | 30 | 355 | 0.0 | 1.6 | 0.00 | 0.00 | 0.00 | 68 | 1018.6 |
| 20260831192209 | 30 | 312 | 0.0 | 3.2 | 0.00 | 0.00 | 0.00 | 67 | 1018.6 |
| 20260831191704 | 30 | 312 | 1.6 | 3.2 | 0.00 | 0.00 | 0.00 | 66 | 1018.7 |
| 20260831191423 | 30 | 53 | 1.6 | 3.2 | 0.00 | 0.00 | 0.00 | 67 | 1018.7 |
| 20260831190652 | 30 | 49 | 1.6 | 4.8 | 0.00 | 0.00 | 0.00 | 69 | 1018.8 |
| 20260831190410 | 30 | 88 | 1.6 | 4.8 | 0.00 | 0.00 | 0.00 | 69 | 1018.9 |
| 20260831185639 | 30 | 109 | 1.6 | 3.2 | 0.00 | 0.00 | 0.00 | 69 | 1019.0 |
| 20260831185137 | 30 | 119 | 0.0 | 3.2 | 0.00 | 0.00 | 0.00 | 68 | 1019.0 |
| 20260831184637 | 30 | 81 | 0.0 | 3.2 | 0.00 | 0.00 | 0.00 | 70 | 1018.9 |
| 20260831184137 | 30 | 81 | 1.6 | 4.8 | 0.00 | 0.00 | 0.00 | 69 | 1018.9 |
| 20260831183638 | 30 | 97 | 1.6 | 4.8 | 0.00 | 0.00 | 0.00 | 69 | 1018.9 |
| 20260831183136 | 30 | 119 | 0.0 | 3.2 | 0.00 | 0.00 | 0.00 | 68 | 1018.9 |
| 20260831182634 | 30 | 87 | 0.0 | 1.6 | 0.00 | 0.00 | 0.00 | 70 | 1018.9 |
| 20260831182131 | 30 | 87 | 0.0 | 3.2 | 0.00 | 0.00 | 0.00 | 66 | 1018.8 |
| 20260831181633 | 30 | 87 | 1.6 | 3.2 | 0.00 | 0.00 | 0.00 | 65 | 1018.8 |
| 20260831181130 | 31 | 88 | 1.6 | 4.8 | 0.00 | 0.00 | 0.00 | 63 | 1018.9 |
| 20260831180630 | 31 | 88 | 1.6 | 4.8 | 0.00 | 0.00 | 0.00 | 62 | 1019.0 |
| 20260831180129 | 31 | 90 | 0.0 | 3.2 | 0.00 | 0.00 | 0.00 | 61 | 1019.0 |
| 20260831175629 | 31 | 306 | 1.6 | 6.4 | 0.00 | 0.00 | 0.00 | 61 | 1019.1 |
| 20260831175130 | 32 | 44 | 1.6 | 6.4 | 0.00 | 0.00 | 0.00 | 58 | 1019.0 |
| 20260831174627 | 31 | 261 | 1.6 | 4.8 | 0.00 | 0.00 | 0.00 | 63 | 1019.0 |
| 20260831174127 | 31 | 244 | 1.6 | 4.8 | 0.00 | 0.00 | 0.00 | 64 | 1018.9 |
| 20260831173856 | 32 | 300 | 1.6 | 4.8 | 0.00 | 0.00 | 0.00 | 58 | 1019.0 |
| 20260831173345 | 32 | 78 | 1.6 | 4.8 | 0.00 | 0.00 | 0.00 | 58 | 1019.0 |
| 20260831172628 | 32 | 130 | 1.6 | 4.8 | 0.00 | 0.00 | 0.00 | 59 | 1019.0 |
| 20260831172122 | 32 | 180 | 1.6 | 3.2 | 0.00 | 0.00 | 0.00 | 61 | 1019.1 |
| 20260831171615 | 31 | 179 | 1.6 | 4.8 | 0.00 | 0.00 | 0.00 | 64 | 1019.2 |
| 20260831171114 | 31 | 267 | 1.6 | 4.8 | 0.00 | 0.00 | 0.00 | 65 | 1019.2 |
| 20260831170614 | 31 | 16 | 1.6 | 4.8 | 0.00 | 0.00 | 0.00 | 61 | 1019.3 |
| 20260831170117 | 31 | 82 | 3.2 | 6.4 | 0.00 | 0.00 | 0.00 | 62 | 1019.4 |
| 20260831165824 | 30 | 114 | 1.6 | 6.4 | 0.00 | 0.00 | 0.00 | 67 | 1019.6 |
| 20260831165711 | 30 | 297 | 3.2 | 6.4 | 0.00 | 0.00 | 0.00 | 63 | 1019.5 |
| 20260831164616 | 31 | 63 | 3.2 | 8.0 | 0.00 | 0.00 | 0.00 | 67 | 1019.6 |
| 20260831164118 | 31 | 298 | 1.6 | 8.0 | 0.00 | 0.00 | 0.00 | 66 | 1019.6 |
| 20260831163845 | 30 | 92 | 1.6 | 6.4 | 0.00 | 0.00 | 0.00 | 68 | 1019.6 |
| 20260831163118 | 30 | 67 | 3.2 | 9.7 | 0.00 | 0.00 | 0.00 | 70 | 1019.7 |
| 20260831162823 | 30 | 71 | 1.6 | 6.4 | 0.00 | 0.00 | 0.00 | 67 | 1019.8 |
| 20260831162705 | 30 | 90 | 3.2 | 9.7 | 0.00 | 0.00 | 0.00 | 67 | 1019.8 |
| 20260831161613 | 30 | 84 | 3.2 | 4.8 | 0.00 | 0.00 | 0.00 | 68 | 1019.8 |
| 20260831161111 | 30 | 71 | 1.6 | 4.8 | 0.00 | 0.00 | 0.00 | 69 | 1019.9 |
| 20260831160613 | 30 | 286 | 3.2 | 11.3 | 0.00 | 0.00 | 0.00 | 70 | 1019.9 |
| 20260831160110 | 29 | 65 | 3.2 | 11.3 | 0.00 | 0.00 | 0.00 | 69 | 1019.9 |
| 20260831155611 | 29 | 67 | 1.6 | 4.8 | 0.00 | 0.00 | 0.00 | 69 | 1019.8 |
| 20260831155111 | 29 | 28 | 1.6 | 11.3 | 0.00 | 0.00 | 0.00 | 70 | 1019.8 |
| 20260831154612 | 29 | 325 | 1.6 | 11.3 | 0.00 | 0.00 | 0.00 | 70 | 1019.7 |
| 20260831154113 | 28 | 46 | 1.6 | 4.8 | 0.00 | 0.00 | 0.00 | 73 | 1019.7 |
| 20260831153612 | 28 | 137 | 1.6 | 4.8 | 0.00 | 0.00 | 0.00 | 73 | 1019.6 |
| 20260831153338 | 28 | 96 | 3.2 | 6.4 | 0.00 | 0.00 | 0.00 | 74 | 1019.6 |
| 20260831152611 | 27 | 106 | 1.6 | 6.4 | 0.00 | 0.00 | 0.00 | 75 | 1019.5 |
| 20260831152111 | 27 | 84 | 1.6 | 8.0 | 0.00 | 0.00 | 0.00 | 77 | 1019.7 |
| 20260831151611 | 27 | 317 | 1.6 | 8.0 | 0.00 | 0.00 | 0.00 | 77 | 1019.7 |
| 20260831151332 | 27 | 119 | 1.6 | 4.8 | 0.00 | 0.00 | 0.00 | 77 | 1019.6 |
| 20260831150833 | 27 | 133 | 1.6 | 4.8 | 0.00 | 0.00 | 0.00 | 78 | 1019.7 |
| 20260831150111 | 27 | 273 | 1.6 | 4.8 | 0.00 | 0.00 | 0.00 | 79 | 1019.7 |
| 20260831145605 | 27 | 104 | 1.6 | 4.8 | 0.00 | 0.00 | 0.00 | 79 | 1019.7 |
| 20260831145059 | 27 | 355 | 1.6 | 6.4 | 0.00 | 0.00 | 0.00 | 79 | 1019.7 |
| 20260831144553 | 26 | 298 | 1.6 | 6.4 | 0.00 | 0.00 | 0.00 | 79 | 1019.6 |
| 20260831144315 | 26 | 283 | 0.0 | 4.8 | 0.00 | 0.00 | 0.00 | 82 | 1019.7 |
| 20260831143546 | 26 | 67 | 0.0 | 4.8 | 0.00 | 0.00 | 0.00 | 82 | 1019.7 |
| 20260831143047 | 26 | 9 | 1.6 | 4.8 | 0.00 | 0.00 | 0.00 | 82 | 1019.7 |
| 20260831142544 | 25 | 74 | 1.6 | 6.4 | 0.00 | 0.00 | 0.00 | 83 | 1019.7 |
| 20260831142044 | 25 | 99 | 1.6 | 6.4 | 0.00 | 0.00 | 0.00 | 83 | 1019.6 |
| 20260831141544 | 25 | 98 | 0.0 | 9.7 | 0.00 | 0.00 | 0.00 | 83 | 1019.6 |
| 20260831141045 | 25 | 113 | 0.0 | 9.7 | 0.00 | 0.00 | 0.00 | 83 | 1019.6 |
| 20260831140545 | 25 | 65 | 0.0 | 6.4 | 0.00 | 0.00 | 0.00 | 83 | 1019.5 |
| 20260831140045 | 25 | 96 | 0.0 | 4.8 | 0.00 | 0.00 | 0.00 | 84 | 1019.3 |
| 20260831135807 | 25 | 107 | 1.6 | 8.0 | 0.00 | 0.00 | 0.00 | 83 | 1019.4 |
| 20260831135306 | 25 | 154 | 1.6 | 11.3 | 0.00 | 0.00 | 0.00 | 83 | 1019.5 |
| 20260831134544 | 25 | 300 | 1.6 | 11.3 | 0.00 | 0.00 | 0.00 | 84 | 1019.5 |
| 20260831134043 | 25 | 85 | 1.6 | 6.4 | 0.00 | 0.00 | 0.00 | 85 | 1019.6 |
| 20260831133544 | 24 | 107 | 1.6 | 6.4 | 0.00 | 0.00 | 0.00 | 86 | 1019.5 |
| 20260831133304 | 24 | 111 | 1.6 | 4.8 | 0.00 | 0.00 | 0.00 | 88 | 1019.5 |
| 20260831132542 | 23 | 114 | 1.6 | 9.7 | 0.00 | 0.00 | 0.00 | 91 | 1019.6 |
| 20260831132041 | 23 | 96 | 1.6 | 9.7 | 0.00 | 0.00 | 0.00 | 94 | 1019.5 |
| 20260831131534 | 22 | 109 | 1.6 | 6.4 | 0.00 | 0.00 | 0.00 | 95 | 1019.6 |
| 20260831131253 | 22 | 51 | 1.6 | 4.8 | 0.00 | 0.00 | 0.00 | 95 | 1019.7 |
| 20260831130521 | 22 | 101 | 1.6 | 4.8 | 0.00 | 0.00 | 0.00 | 95 | 1019.7 |
| 20260831130016 | 22 | 80 | 0.0 | 4.8 | 0.00 | 0.00 | 0.00 | 95 | 1019.8 |
| 20260831125509 | 22 | 44 | 1.6 | 4.8 | 0.00 | 0.00 | 0.00 | 95 | 1019.7 |
| 20260831125003 | 21 | 55 | 1.6 | 4.8 | 0.00 | 0.00 | 0.00 | 95 | 1019.7 |
| 20260831124720 | 21 | 55 | 0.0 | 3.2 | 0.00 | 0.00 | 0.00 | 95 | 1019.6 |
| 20260831123951 | 21 | 302 | 0.0 | 3.2 | 0.00 | 0.00 | 0.00 | 95 | 1019.7 |
| 20260831123445 | 21 | 30 | 0.0 | 3.2 | 0.00 | 0.00 | 0.00 | 95 | 1019.6 |
| 20260831122939 | 21 | 80 | 0.0 | 1.6 | 0.00 | 0.00 | 0.00 | 94 | 1019.6 |
| 20260831122433 | 21 | 57 | 0.0 | 1.6 | 0.00 | 0.00 | 0.00 | 94 | 1019.6 |
| 20260831121927 | 21 | 57 | 0.0 | 3.2 | 0.00 | 0.00 | 0.00 | 94 | 1019.5 |
| 20260831121908 | 21 | 68 | 0.0 | 4.8 | 0.00 | 0.00 | 0.00 | 94 | 1019.5 |
| 20260831120914 | 21 | 88 | 0.0 | 4.8 | 0.00 | 0.00 | 0.00 | 94 | 1019.6 |
| 20260831120409 | 21 | 48 | 0.0 | 1.6 | 0.00 | 0.00 | 0.00 | 94 | 1019.5 |
| 20260831115903 | 21 | 48 | 0.0 | 1.6 | 0.00 | 0.00 | 0.00 | 94 | 1019.5 |
| 20260831115357 | 21 | 65 | 0.0 | 1.6 | 0.00 | 0.00 | 0.00 | 94 | 1019.5 |
| 20260831114851 | 20 | 65 | 0.0 | 1.6 | 0.00 | 0.00 | 0.00 | 94 | 1019.4 |
| 20260831114830 | 20 | 65 | 0.0 | 1.6 | 0.00 | 0.00 | 0.00 | 94 | 1019.3 |
| 20260831113839 | 20 | 65 | 0.0 | 1.6 | 0.00 | 0.00 | 0.00 | 94 | 1019.4 |
| 20260831113333 | 20 | 65 | 0.0 | 3.2 | 0.00 | 0.00 | 0.00 | 94 | 1019.4 |
| 20260831112828 | 20 | 5 | 0.0 | 3.2 | 0.00 | 0.00 | 0.00 | 93 | 1019.4 |
| 20260831112321 | 20 | 243 | 0.0 | 1.6 | 0.00 | 0.00 | 0.00 | 93 | 1019.3 |
| 20260831111814 | 20 | 243 | 0.0 | 0.0 | 0.00 | 0.00 | 0.00 | 93 | 1019.1 |
| 20260831111309 | 21 | 243 | 0.0 | 0.0 | 0.00 | 0.00 | 0.00 | 93 | 1019.1 |
| 20260831110803 | 21 | 243 | 0.0 | 0.0 | 0.00 | 0.00 | 0.00 | 93 | 1018.9 |
| 20260831110257 | 21 | 243 | 0.0 | 1.6 | 0.00 | 0.00 | 0.00 | 93 | 1018.9 |
| 20260831110021 | 21 | 243 | 0.0 | 1.6 | 0.00 | 0.00 | 0.00 | 93 | 1018.8 |
| 20260831105245 | 21 | 243 | 0.0 | 1.6 | 0.00 | 0.00 | 0.00 | 93 | 1018.7 |
| 20260831104739 | 21 | 243 | 0.0 | 0.0 | 0.00 | 0.00 | 0.00 | 93 | 1018.6 |
| 20260831104233 | 21 | 243 | 0.0 | 0.0 | 0.00 | 0.00 | 0.00 | 93 | 1018.5 |
| 20260831103728 | 21 | 243 | 0.0 | 0.0 | 0.00 | 0.00 | 0.00 | 93 | 1018.5 |
| 20260831103222 | 21 | 243 | 0.0 | 0.0 | 0.00 | 0.00 | 0.00 | 93 | 1018.5 |
| 20260831102909 | 21 | 243 | 0.0 | 0.0 | 0.00 | 0.00 | 0.00 | 93 | 1018.5 |
| 20260831102756 | 21 | 243 | 0.0 | 0.0 | 0.00 | 0.00 | 0.00 | 93 | 1018.4 |
| 20260831101920 | 21 | 243 | 0.0 | 0.0 | 0.00 | 0.00 | 0.00 | 93 | 1018.5 |
| 20260831101157 | 21 | 243 | 0.0 | 0.0 | 0.00 | 0.00 | 0.00 | 93 | 1018.5 |
| 20260831100652 | 21 | 243 | 0.0 | 1.6 | 0.00 | 0.00 | 0.00 | 93 | 1018.5 |
| 20260831100145 | 21 | 243 | 0.0 | 1.6 | 0.00 | 0.00 | 0.00 | 93 | 1018.6 |
| 20260831095640 | 21 | 221 | 0.0 | 0.0 | 0.00 | 0.00 | 0.00 | 93 | 1018.6 |
| 20260831095134 | 21 | 221 | 0.0 | 0.0 | 0.00 | 0.00 | 0.00 | 93 | 1018.6 |
| 20260831094627 | 21 | 221 | 0.0 | 1.6 | 0.00 | 0.00 | 0.00 | 93 | 1018.6 |
| 20260831094122 | 21 | 221 | 0.0 | 1.6 | 0.00 | 0.00 | 0.00 | 93 | 1018.5 |
| 20260831093616 | 21 | 221 | 0.0 | 1.6 | 0.00 | 0.00 | 0.00 | 93 | 1018.4 |
| 20260831093109 | 21 | 221 | 0.0 | 0.0 | 0.00 | 0.00 | 0.00 | 93 | 1018.3 |
| 20260831092828 | 21 | 221 | 0.0 | 0.0 | 0.00 | 0.00 | 0.00 | 93 | 1018.4 |
| 20260831092146 | 21 | 221 | 0.0 | 0.0 | 0.00 | 0.00 | 0.00 | 93 | 1018.4 |
| 20260831092104 | 21 | 221 | 0.0 | 0.0 | 0.00 | 0.00 | 0.00 | 93 | 1018.4 |
| 20260831091829 | 21 | 221 | 0.0 | 0.0 | 0.00 | 0.00 | 0.00 | 93 | 1018.3 |
| 20260831090602 | 21 | 221 | 0.0 | 0.0 | 0.00 | 0.00 | 0.00 | 93 | 1018.2 |
| 20260831090104 | 21 | 221 | 0.0 | 0.0 | 0.00 | 0.00 | 0.00 | 92 | 1018.3 |
| 20260831085600 | 21 | 221 | 0.0 | 0.0 | 0.00 | 0.00 | 0.00 | 92 | 1018.3 |
| 20260831085059 | 21 | 221 | 0.0 | 0.0 | 0.00 | 0.00 | 0.00 | 92 | 1018.3 |
| 20260831084558 | 21 | 221 | 0.0 | 0.0 | 0.00 | 0.00 | 0.00 | 92 | 1018.3 |
| 20260831084056 | 21 | 221 | 0.0 | 0.0 | 0.00 | 0.00 | 0.00 | 92 | 1018.3 |
| 20260831083558 | 21 | 221 | 0.0 | 0.0 | 0.00 | 0.00 | 0.00 | 92 | 1018.2 |
| 20260831083319 | 21 | 221 | 0.0 | 1.6 | 0.00 | 0.00 | 0.00 | 92 | 1018.2 |
| 20260831082556 | 21 | 221 | 0.0 | 1.6 | 0.00 | 0.00 | 0.00 | 92 | 1018.2 |
| 20260831082055 | 21 | 221 | 0.0 | 0.0 | 0.00 | 0.00 | 0.00 | 92 | 1018.3 |
| 20260831081554 | 21 | 221 | 0.0 | 0.0 | 0.00 | 0.00 | 0.00 | 92 | 1018.3 |
| 20260831081056 | 21 | 221 | 0.0 | 0.0 | 0.00 | 0.00 | 0.00 | 92 | 1018.3 |
| 20260831080554 | 21 | 221 | 0.0 | 0.0 | 0.00 | 0.00 | 0.00 | 91 | 1018.3 |
| 20260831080054 | 21 | 221 | 0.0 | 0.0 | 0.00 | 0.00 | 0.00 | 91 | 1018.2 |
| 20260831075556 | 21 | 221 | 0.0 | 0.0 | 0.00 | 0.00 | 0.00 | 91 | 1018.2 |
| 20260831075050 | 21 | 221 | 0.0 | 0.0 | 0.00 | 0.00 | 0.00 | 92 | 1018.2 |
| 20260831074543 | 21 | 221 | 0.0 | 0.0 | 0.00 | 0.00 | 0.00 | 91 | 1018.2 |
| 20260831074037 | 21 | 221 | 0.0 | 0.0 | 0.00 | 0.00 | 0.00 | 91 | 1018.2 |
| 20260831073537 | 21 | 221 | 0.0 | 0.0 | 0.00 | 0.00 | 0.00 | 91 | 1018.2 |
| 20260831073034 | 21 | 221 | 0.0 | 0.0 | 0.00 | 0.00 | 0.00 | 91 | 1018.1 |
| 20260831072534 | 21 | 221 | 0.0 | 0.0 | 0.00 | 0.00 | 0.00 | 91 | 1018.1 |
| 20260831072035 | 21 | 221 | 0.0 | 0.0 | 0.00 | 0.00 | 0.00 | 91 | 1018.1 |
| 20260831071532 | 21 | 221 | 0.0 | 0.0 | 0.00 | 0.00 | 0.00 | 91 | 1018.0 |
| 20260831071306 | 21 | 221 | 0.0 | 0.0 | 0.00 | 0.00 | 0.00 | 91 | 1018.1 |
| 20260831070751 | 21 | 221 | 0.0 | 1.6 | 0.00 | 0.00 | 0.00 | 91 | 1018.1 |
| 20260831070030 | 21 | 221 | 0.0 | 1.6 | 0.00 | 0.00 | 0.00 | 91 | 1018.1 |
| 20260831065531 | 21 | 221 | 0.0 | 0.0 | 0.00 | 0.00 | 0.00 | 91 | 1018.1 |
| 20260831065028 | 21 | 221 | 0.0 | 0.0 | 0.00 | 0.00 | 0.00 | 91 | 1018.1 |
| 20260831064528 | 21 | 221 | 0.0 | 0.0 | 0.00 | 0.00 | 0.00 | 91 | 1018.2 |
| 20260831064027 | 21 | 221 | 0.0 | 0.0 | 0.00 | 0.00 | 0.00 | 91 | 1018.2 |
| 20260831063529 | 21 | 221 | 0.0 | 0.0 | 0.00 | 0.00 | 0.00 | 91 | 1018.2 |
| 20260831063025 | 22 | 221 | 0.0 | 0.0 | 0.00 | 0.00 | 0.00 | 91 | 1018.3 |
| 20260831062524 | 22 | 221 | 0.0 | 0.0 | 0.00 | 0.00 | 0.00 | 91 | 1018.3 |
| 20260831062247 | 22 | 221 | 0.0 | 0.0 | 0.00 | 0.00 | 0.00 | 90 | 1018.3 |
| 20260831061524 | 22 | 221 | 0.0 | 0.0 | 0.00 | 0.00 | 0.00 | 90 | 1018.3 |
| 20260831061025 | 22 | 221 | 0.0 | 0.0 | 0.00 | 0.00 | 0.00 | 90 | 1018.4 |
| 20260831060525 | 22 | 221 | 0.0 | 0.0 | 0.00 | 0.00 | 0.00 | 90 | 1018.5 |
| 20260831060023 | 22 | 221 | 0.0 | 0.0 | 0.00 | 0.00 | 0.00 | 90 | 1018.5 |
| 20260831055754 | 22 | 221 | 0.0 | 0.0 | 0.00 | 0.00 | 0.00 | 90 | 1018.5 |
| 20260831055025 | 22 | 221 | 0.0 | 0.0 | 0.00 | 0.00 | 0.00 | 90 | 1018.6 |
| 20260831055010 | 22 | 221 | 0.0 | 0.0 | 0.00 | 0.00 | 0.00 | 90 | 1018.7 |
| 20260831054020 | 22 | 221 | 0.0 | 0.0 | 0.00 | 0.00 | 0.00 | 89 | 1018.7 |
| 20260831053522 | 22 | 221 | 0.0 | 1.6 | 0.00 | 0.00 | 0.00 | 89 | 1018.7 |
| 20260831053021 | 22 | 221 | 0.0 | 1.6 | 0.00 | 0.00 | 0.00 | 89 | 1018.7 |
| 20260831052520 | 22 | 221 | 0.0 | 0.0 | 0.00 | 0.00 | 0.00 | 89 | 1018.8 |
| 20260831052021 | 22 | 221 | 0.0 | 0.0 | 0.00 | 0.00 | 0.00 | 89 | 1018.7 |
| 20260831051523 | 22 | 221 | 0.0 | 0.0 | 0.00 | 0.00 | 0.00 | 89 | 1018.8 |
| 20260831051021 | 22 | 221 | 0.0 | 0.0 | 0.00 | 0.00 | 0.00 | 89 | 1018.7 |
| 20260831050522 | 22 | 221 | 0.0 | 0.0 | 0.00 | 0.00 | 0.00 | 89 | 1018.8 |
| 20260831050020 | 22 | 221 | 0.0 | 0.0 | 0.00 | 0.00 | 0.00 | 89 | 1018.8 |
| 20260831045526 | 22 | 221 | 0.0 | 0.0 | 0.00 | 0.00 | 0.00 | 89 | 1018.8 |
| 20260831045020 | 22 | 221 | 0.0 | 0.0 | 0.00 | 0.00 | 0.00 | 89 | 1018.9 |
| 20260831044522 | 22 | 221 | 0.0 | 0.0 | 0.00 | 0.00 | 0.00 | 88 | 1018.9 |
| 20260831044237 | 22 | 221 | 0.0 | 0.0 | 0.00 | 0.00 | 0.00 | 89 | 1019.0 |
| 20260831043517 | 22 | 221 | 0.0 | 0.0 | 0.00 | 0.00 | 0.00 | 88 | 1019.0 |
| 20260831043232 | 22 | 221 | 0.0 | 3.2 | 0.00 | 0.00 | 0.00 | 88 | 1018.9 |
| 20260831042730 | 23 | 221 | 0.0 | 3.2 | 0.00 | 0.00 | 0.00 | 88 | 1018.9 |
| 20260831042012 | 23 | 221 | 0.0 | 1.6 | 0.00 | 0.00 | 0.00 | 88 | 1018.9 |
| 20260831041510 | 23 | 221 | 0.0 | 1.6 | 0.00 | 0.00 | 0.00 | 88 | 1018.9 |
| 20260831041007 | 23 | 221 | 0.0 | 1.6 | 0.00 | 0.00 | 0.00 | 87 | 1019.0 |
| 20260831040505 | 23 | 221 | 0.0 | 0.0 | 0.00 | 0.00 | 0.00 | 88 | 1019.0 |
| 20260831035959 | 23 | 221 | 0.0 | 0.0 | 0.00 | 0.00 | 0.00 | 87 | 1018.9 |
| 20260831035500 | 23 | 221 | 0.0 | 0.0 | 0.00 | 0.00 | 0.00 | 87 | 1018.9 |
| 20260831035231 | 23 | 221 | 0.0 | 0.0 | 0.00 | 0.00 | 0.00 | 87 | 1018.9 |
| 20260831034500 | 23 | 221 | 0.0 | 0.0 | 0.00 | 0.00 | 0.00 | 87 | 1018.9 |
| 20260831034000 | 23 | 221 | 0.0 | 0.0 | 0.00 | 0.00 | 0.00 | 87 | 1018.9 |
| 20260831033723 | 23 | 221 | 0.0 | 0.0 | 0.00 | 0.00 | 0.00 | 87 | 1019.0 |
| 20260831033000 | 23 | 221 | 0.0 | 0.0 | 0.00 | 0.00 | 0.00 | 86 | 1019.0 |
| 20260831032500 | 23 | 221 | 0.0 | 0.0 | 0.00 | 0.00 | 0.00 | 86 | 1019.1 |
| 20260831032001 | 23 | 221 | 0.0 | 0.0 | 0.00 | 0.00 | 0.00 | 86 | 1019.1 |
| 20260831031459 | 23 | 221 | 0.0 | 0.0 | 0.00 | 0.00 | 0.00 | 86 | 1019.1 |
| 20260831031212 | 23 | 221 | 0.0 | 0.0 | 0.00 | 0.00 | 0.00 | 86 | 1019.3 |
| 20260831031054 | 23 | 221 | 0.0 | 0.0 | 0.00 | 0.00 | 0.00 | 86 | 1019.2 |
| 20260831030000 | 23 | 221 | 0.0 | 0.0 | 0.00 | 0.00 | 0.00 | 86 | 1019.2 |
| 20260831025500 | 23 | 221 | 0.0 | 0.0 | 0.00 | 0.00 | 0.00 | 86 | 1019.3 |
| 20260831025002 | 23 | 221 | 0.0 | 0.0 | 0.00 | 0.00 | 0.00 | 86 | 1019.5 |
| 20260831024459 | 23 | 221 | 0.0 | 0.0 | 0.00 | 0.00 | 0.00 | 86 | 1019.5 |
| 20260831024001 | 23 | 221 | 0.0 | 0.0 | 0.00 | 0.00 | 0.00 | 86 | 1019.5 |
| 20260831023500 | 23 | 221 | 0.0 | 0.0 | 0.00 | 0.00 | 0.00 | 85 | 1019.5 |
| 20260831023218 | 23 | 221 | 0.0 | 3.2 | 0.00 | 0.00 | 0.00 | 85 | 1019.6 |
| 20260831022503 | 23 | 221 | 0.0 | 3.2 | 0.00 | 0.00 | 0.00 | 85 | 1019.7 |
| 20260831021954 | 23 | 181 | 0.0 | 3.2 | 0.00 | 0.00 | 0.00 | 84 | 1019.8 |
| 20260831021449 | 24 | 350 | 0.0 | 0.0 | 0.00 | 0.00 | 0.00 | 84 | 1019.7 |
| 20260831020943 | 24 | 55 | 0.0 | 0.0 | 0.00 | 0.00 | 0.00 | 84 | 1019.6 |
| 20260831020437 | 24 | 55 | 0.0 | 0.0 | 0.00 | 0.00 | 0.00 | 84 | 1019.6 |
| 20260831015931 | 24 | 55 | 0.0 | 0.0 | 0.00 | 0.00 | 0.00 | 84 | 1019.6 |
| 20260831015431 | 24 | 55 | 0.0 | 0.0 | 0.00 | 0.00 | 0.00 | 84 | 1019.6 |
| 20260831014942 | 24 | 55 | 0.0 | 0.0 | 0.00 | 0.00 | 0.00 | 83 | 1019.6 |
| 20260831014429 | 24 | 55 | 0.0 | 0.0 | 0.00 | 0.00 | 0.00 | 83 | 1019.6 |
| 20260831014152 | 24 | 55 | 0.0 | 0.0 | 0.00 | 0.00 | 0.00 | 83 | 1019.5 |
| 20260831013427 | 24 | 55 | 0.0 | 0.0 | 0.00 | 0.00 | 0.00 | 83 | 1019.5 |
| 20260831013155 | 24 | 55 | 0.0 | 0.0 | 0.00 | 0.00 | 0.00 | 82 | 1019.6 |
| 20260831012426 | 24 | 55 | 0.0 | 0.0 | 0.00 | 0.00 | 0.00 | 82 | 1019.6 |
| 20260831011927 | 25 | 55 | 0.0 | 0.0 | 0.00 | 0.00 | 0.00 | 82 | 1019.7 |
| 20260831011425 | 25 | 55 | 0.0 | 0.0 | 0.00 | 0.00 | 0.00 | 81 | 1019.8 |
| 20260831010926 | 25 | 55 | 0.0 | 0.0 | 0.00 | 0.00 | 0.00 | 80 | 1019.7 |
| 20260831010653 | 25 | 55 | 0.0 | 0.0 | 0.00 | 0.00 | 0.00 | 80 | 1019.7 |
| 20260831010130 | 25 | 55 | 0.0 | 0.0 | 0.00 | 0.00 | 0.00 | 79 | 1019.5 |
| 20260831010019 | 25 | 55 | 0.0 | 0.0 | 0.00 | 0.00 | 0.00 | 80 | 1019.6 |
| 20260831004923 | 25 | 55 | 0.0 | 0.0 | 0.00 | 0.00 | 0.00 | 79 | 1019.3 |
| 20260831004422 | 25 | 55 | 0.0 | 0.0 | 0.00 | 0.00 | 0.00 | 79 | 1019.3 |
| 20260831003920 | 25 | 55 | 0.0 | 0.0 | 0.00 | 0.00 | 0.00 | 78 | 1019.2 |
| 20260831003420 | 25 | 55 | 0.0 | 0.0 | 0.00 | 0.00 | 0.00 | 78 | 1019.2 |
| 20260831002914 | 25 | 55 | 0.0 | 0.0 | 0.00 | 0.00 | 0.00 | 78 | 1019.2 |
| 20260831002637 | 26 | 55 | 0.0 | 0.0 | 0.00 | 0.00 | 0.00 | 78 | 1019.1 |
| 20260831001902 | 26 | 55 | 0.0 | 1.6 | 0.00 | 0.00 | 0.00 | 77 | 1019.1 |
| 20260831001618 | 26 | 55 | 0.0 | 1.6 | 0.00 | 0.00 | 0.00 | 77 | 1019.1 |
| 20260831000850 | 26 | 37 | 0.0 | 0.0 | 0.00 | 0.00 | 0.00 | 77 | 1019.2 |
| 20260831000611 | 26 | 37 | 0.0 | 3.2 | 0.00 | 0.00 | 0.00 | 76 | 1019.1 |
| 20260830235839 | 26 | 37 | 0.0 | 3.2 | 0.00 | 0.00 | 0.00 | 76 | 1019.0 |
| 20260830235333 | 26 | 312 | 0.0 | 1.6 | 0.00 | 0.00 | 0.00 | 75 | 1019.0 |
| 20260830234827 | 26 | 236 | 0.0 | 1.6 | 0.00 | 0.00 | 0.00 | 75 | 1019.0 |
| 20260830234322 | 26 | 236 | 0.0 | 3.2 | 0.00 | 0.00 | 0.00 | 75 | 1019.1 |
| 20260830233814 | 26 | 35 | 0.0 | 3.2 | 0.00 | 0.00 | 0.00 | 74 | 1019.1 |
| 20260830233309 | 26 | 331 | 0.0 | 3.2 | 0.00 | 0.00 | 0.00 | 73 | 1019.2 |
| 20260830232802 | 26 | 304 | 0.0 | 3.2 | 0.00 | 0.00 | 0.00 | 73 | 1019.2 |
| 20260830232256 | 27 | 315 | 0.0 | 3.2 | 0.00 | 0.00 | 0.00 | 72 | 1019.1 |
| 20260830231750 | 27 | 315 | 1.6 | 6.4 | 0.00 | 0.00 | 0.00 | 71 | 1019.0 |
| 20260830231244 | 27 | 265 | 1.6 | 8.0 | 0.00 | 0.00 | 0.00 | 70 | 1018.9 |
| 20260830230738 | 27 | 248 | 1.6 | 8.0 | 0.00 | 0.00 | 0.00 | 70 | 1018.8 |
| 20260830230459 | 27 | 125 | 0.0 | 4.8 | 0.00 | 0.00 | 0.00 | 71 | 1018.9 |
| 20260830225958 | 27 | 302 | 0.0 | 3.2 | 0.00 | 0.00 | 0.00 | 72 | 1018.8 |
| 20260830225221 | 28 | 242 | 1.6 | 4.8 | 0.00 | 0.00 | 0.00 | 72 | 1018.8 |
| 20260830224714 | 28 | 288 | 1.6 | 6.4 | 0.00 | 0.00 | 0.00 | 72 | 1018.9 |
| 20260830224434 | 28 | 271 | 1.6 | 6.4 | 0.00 | 0.00 | 0.00 | 72 | 1018.9 |
| 20260830223703 | 28 | 238 | 1.6 | 6.4 | 0.00 | 0.00 | 0.00 | 72 | 1018.9 |
| 20260830223156 | 28 | 178 | 0.0 | 6.4 | 0.00 | 0.00 | 0.00 | 73 | 1018.7 |
| 20260830222650 | 28 | 258 | 0.0 | 0.0 | 0.00 | 0.00 | 0.00 | 73 | 1018.7 |
| 20260830222144 | 28 | 258 | 0.0 | 0.0 | 0.00 | 0.00 | 0.00 | 73 | 1018.5 |
| 20260830221638 | 28 | 258 | 0.0 | 0.0 | 0.00 | 0.00 | 0.00 | 72 | 1018.5 |
| 20260830221132 | 28 | 258 | 0.0 | 0.0 | 0.00 | 0.00 | 0.00 | 72 | 1018.5 |
| 20260830220848 | 29 | 258 | 0.0 | 0.0 | 0.00 | 0.00 | 0.00 | 71 | 1018.5 |
| 20260830220121 | 29 | 258 | 0.0 | 0.0 | 0.00 | 0.00 | 0.00 | 71 | 1018.4 |
| 20260830215613 | 29 | 258 | 0.0 | 0.0 | 0.00 | 0.00 | 0.00 | 70 | 1018.4 |
| 20260830215108 | 29 | 258 | 0.0 | 0.0 | 0.00 | 0.00 | 0.00 | 70 | 1018.5 |
| 20260830214601 | 30 | 258 | 0.0 | 0.0 | 0.00 | 0.00 | 0.00 | 69 | 1018.5 |
| 20260830214101 | 30 | 259 | 0.0 | 0.0 | 0.00 | 0.00 | 0.00 | 69 | 1018.5 |
| 20260830213816 | 30 | 259 | 0.0 | 1.6 | 0.00 | 0.00 | 0.00 | 68 | 1018.6 |
| 20260830213053 | 30 | 253 | 0.0 | 1.6 | 0.00 | 0.00 | 0.00 | 69 | 1018.6 |
| 20260830212553 | 30 | 274 | 0.0 | 4.8 | 0.00 | 0.00 | 0.00 | 68 | 1018.6 |
| 20260830212052 | 30 | 274 | 1.6 | 4.8 | 0.00 | 0.00 | 0.00 | 67 | 1018.5 |
| 20260830211550 | 30 | 118 | 1.6 | 4.8 | 0.00 | 0.00 | 0.00 | 67 | 1018.5 |
| 20260830211048 | 29 | 221 | 1.6 | 3.2 | 0.00 | 0.00 | 0.00 | 69 | 1018.5 |
| 20260830210547 | 29 | 26 | 1.6 | 4.8 | 0.00 | 0.00 | 0.00 | 70 | 1018.5 |
| 20260830210047 | 29 | 223 | 1.6 | 4.8 | 0.00 | 0.00 | 0.00 | 68 | 1018.4 |
| 20260830205550 | 30 | 219 | 1.6 | 6.4 | 0.00 | 0.00 | 0.00 | 68 | 1018.4 |
| 20260830205046 | 30 | 240 | 1.6 | 8.0 | 0.00 | 0.00 | 0.00 | 64 | 1018.4 |
| 20260830204810 | 30 | 226 | 1.6 | 8.0 | 0.00 | 0.00 | 0.00 | 64 | 1018.3 |